{"data":{"norad_id":55584,"epoch":"2026-05-24T20:06:47.779200Z","epoch_age_seconds":92586,"freshness":"FRESH","line1":"1 55584U 23020R   26144.83805300  .00000007  00000+0  97616-5 0  9998","line2":"2 55584  43.0023 295.5896 0001126 258.8549 101.2176 15.27576525180558","mean_motion":15.27576525,"eccentricity":0.0001126,"inclination_deg":43.0023,"raan_deg":295.5896,"arg_perigee_deg":258.8549,"mean_anomaly_deg":101.2176,"bstar":9.7616e-6,"rev_number":18055,"period_min":94.266963155905,"perigee_km":482.28693073344,"apogee_km":483.83207218557,"semimajor_km":6861.1965014595,"source":"CELESTRAK","updated_at":"2026-05-25T13:38:17.837395Z"}}